Home > Weather > Manhattan > Past weeks

Flag for USA Weather for the Past 2 Weeks in Manhattan, Kansas, USA

Now
84 °F

Sunny.


Feels Like: 82 °F
Forecast: 47 / 85 °F
Wind: 13 mph from Southwest

Location: Manhattan Municipal Airport

Current Time: May 6, 2016 at 2:48:11 PM

Latest Report: May 6, 2016 at 1:52 PM


Visibility: 10 mi

Pressure: 29.99 "Hg

Humidity: 27%

Dew Point: 47 °F

Location of ManhattanLocation

Historic Weather in Manhattan — Graph

°F

Manhattan Temperature Yesterday

Maximum temperature yesterday: 79 °F (at 3:52 PM)
Minimum temperature yesterday: 40 °F (at 5:52 AM)
Average temperature yesterday: 61 °F

High & Low Weather Summary for the Past Weeks

 TemperatureHumidityPressure
High84 °F (May 6, 1:52 PM)100% (Apr 24, 9:59 PM)30.19 "Hg (Apr 24, 9:59 PM)
Low40 °F (May 3, 5:52 AM)23% (May 5, 1:52 PM)29.43 "Hg (Apr 27, 3:52 AM)
Average59 °F66%29.89 "Hg
* Reported Apr 21 1:52 PM — May 6 1:52 PM, Manhattan, Weather by CustomWeather, © 2016

Note: Actual official high and low records may vary slightly from our data, if they occured in-between our weather recording intervals... More about our weather records

Advertising

Manhattan Weather History for the Previous 24 Hours

Scroll right to see more
 ConditionsComfort  
Time TempWeatherWind HumidityBarometerVisibility
1:52 PM
Fri, May 6
84 °FSunny.13 mph27%29.99 "Hg10 mi
12:52 PM82 °FSunny.16 mph27%30.01 "Hg10 mi
11:52 AM79 °FSunny.13 mph34%30.04 "Hg10 mi
10:52 AM76 °FSunny.6 mph43%30.05 "Hg10 mi
9:52 AM68 °FSunny.No wind53%30.06 "Hg10 mi
8:52 AM62 °FSunny.3 mph60%30.06 "Hg10 mi
7:52 AM53 °FSunny.No wind80%30.06 "Hg10 mi
6:52 AM45 °FClear.No wind86%30.04 "Hg10 mi
5:52 AM46 °FClear.No wind86%30.03 "Hg10 mi
4:52 AM48 °FClear.No wind83%30.03 "Hg10 mi
3:52 AM47 °FClear.No wind86%30.03 "Hg10 mi
2:52 AM48 °FClear.No wind83%30.03 "Hg10 mi
1:52 AM50 °FClear.5 mph77%30.03 "Hg10 mi
12:52 AM50 °FClear.No wind83%30.04 "Hg10 mi
11:52 PM
Thu, May 5
56 °FClear.3 mph67%30.04 "Hg10 mi
10:52 PM57 °FClear.3 mph64%30.04 "Hg10 mi
9:52 PM63 °FClear.No wind52%30.02 "Hg10 mi
8:52 PM63 °FSunny.No wind52%30.00 "Hg10 mi
7:52 PM70 °FSunny.No wind49%30.00 "Hg10 mi
6:52 PM79 °FSunny.3 mph24%29.99 "Hg10 mi
5:52 PM79 °FSunny.6 mph26%30.01 "Hg10 mi
4:52 PM79 °FSunny.5 mph23%30.02 "Hg10 mi
3:52 PM79 °FSunny.10 mph27%30.03 "Hg10 mi
2:52 PM78 °FSunny.N/A24%30.05 "Hg10 mi
Weather by CustomWeather, © 2016

See weather overviewHow to use our weather pages